Regional Weather Roundup
Issued by NWS

Home | Current Version | Previous Version | Graphics & Text | Print | Product List | Glossary On
Versions: 1 2 3 4 5 6 7 8 9 10 11 12 13 14 15 16 17 18 19 20 21 22 23 24 25 26 27 28 29 30 31 32 33 34 35 36 37 38 39 40 41 42 43 44 45 46 47 48 49 50
000
ASUS45 KPSR 251810
RWRAZ

ARIZONA HOURLY REGIONAL WEATHER ROUNDUP
NATIONAL WEATHER SERVICE PHOENIX AZ
1100 AM MST MON SEP 25 2017

NOTE: FAIR INDICATES FEW OR NO CLOUDS BELOW 12,000 FEET WITH NO
SIGNIFICANT WEATHER AND/OR OBSTRUCTIONS TO VISIBILITY.

AZZ001>003-036-251900-
NORTHWEST ARIZONA

CITY           SKY/WX    TMP DP  RH WIND       PRES   REMARKS
BULLHEAD CITY  PTSUNNY   75  32  20 N25       29.88F
KINGMAN        MOSUNNY   68  29  23 N12       29.99F
6HR MIN TEMP:  44; 6HR MAX TEMP:  68;

$$

AZZ004>008-015-016-018-251900-
NORTH CENTRAL ARIZONA

CITY           SKY/WX    TMP DP  RH WIND       PRES   REMARKS
GRAND CANYON   SUNNY     57  23  26 NE8       30.10F
6HR MIN TEMP:  20; 6HR MAX TEMP:  58;

WILLIAMS       MOSUNNY   61  12  15 NE5       30.08S
PRESCOTT       SUNNY     64  19  17 NE3       30.02F
6HR MIN TEMP:  36; 6HR MAX TEMP:  64;

FLAGSTAFF      MOSUNNY   56  14  19 CALM      30.09F
6HR MIN TEMP:  24; 6HR MAX TEMP:  56;

PAYSON           N/A     68  12  11 VRB5      30.00F
PAGE           SUNNY     61  28  28 N7        30.06F
6HR MIN TEMP:  45; 6HR MAX TEMP:  61;

$$

AZZ009>014-017-251900-
NORTHEAST ARIZONA

CITY           SKY/WX    TMP DP  RH WIND       PRES   REMARKS
WINSLOW        SUNNY     62  17  17 N7        30.04F
6HR MIN TEMP:  31; 6HR MAX TEMP:  62;

SAINT JOHNS    SUNNY     62  12  14 VRB3      30.02F
6HR MIN TEMP:  30; 6HR MAX TEMP:  62;

WINDOW ROCK    SUNNY     61  14  16 S5        30.08F
6HR MIN TEMP:  22; 6HR MAX TEMP:  62;

SHOW LOW       SUNNY     57  14  18 N7        30.07F
$$

AZZ540-542>544-546-548-251900-
GREATER PHOENIX AREA

CITY           SKY/WX    TMP DP  RH WIND       PRES   REMARKS
PHOENIX        MOSUNNY   80  22  11 VRB5      29.82F
6HR MIN TEMP:  62; 6HR MAX TEMP:  80;

BUCKEYE        SUNNY     77  27  15 SE6       29.84S
GLENDALE       MOSUNNY   79  25  13 VRB3      29.85S
LUKE AFB       SUNNY     79  24  13 CALM      29.81F
6HR MIN TEMP:  58; 6HR MAX TEMP:  79;

DEER VALLEY    SUNNY     78  17  10 S5        29.83S
6HR MIN TEMP:  57; 6HR MAX TEMP:  78;

SCOTTSDALE     SUNNY     78  21  12 S6        29.85F
6HR MIN TEMP:  57; 6HR MAX TEMP:  78;

MESA-FALCON    MOSUNNY   79  21  11 SW6       29.84F
MESA-GATEWAY   SUNNY     75  25  15 CALM      29.85F
$$

AZZ539-553-251900-
SOUTHWEST MARICOPA COUNTY AND PINAL COUNTY

CITY           SKY/WX    TMP DP  RH WIND       PRES   REMARKS
CASA GRANDE    NOT AVBL
GILA BEND      SUNNY     75  19  12 NW3       29.82F
6HR MIN TEMP:  53; 6HR MAX TEMP:  76;

$$

AZZ503-504-507>509-251900-
SOUTHEAST ARIZONA

CITY           SKY/WX    TMP DP  RH WIND       PRES   REMARKS
TUCSON         SUNNY     77  22  13 S3        29.88F
6HR MIN TEMP:  54; 6HR MAX TEMP:  78;

DAVIS-MONTHAN  SUNNY     79  22  12 CALM      29.86F
6HR MIN TEMP:  51; 6HR MAX TEMP:  79;

RYAN FIELD     SUNNY     79  19  11 MISG      29.87F
NOGALES        SUNNY     77  33  20 VRB3      29.92S
6HR MIN TEMP:  44; 6HR MAX TEMP:  77;

SIERRA VISTA   SUNNY     74  29  18 CALM      29.96F
6HR MIN TEMP:  51; 6HR MAX TEMP:  75;

DOUGLAS        SUNNY     74  35  24 CALM      29.93F
6HR MIN TEMP:  41; 6HR MAX TEMP:  74;

SAFFORD        SUNNY     74  22  14 CALM      29.88F
6HR MIN TEMP:  49; 6HR MAX TEMP:  74;

$$

AZZ532-251900-
SOUTHWEST ARIZONA

CITY           SKY/WX    TMP DP  RH WIND       PRES   REMARKS
YUMA           MOSUNNY   84  27  12 N10       29.83S
6HR MIN TEMP:  61; 6HR MAX TEMP:  84;

$$

CAZ041-043-047-048-061-525>527-560>570-251900-
SOUTHERN CALIFORNIA

CITY           SKY/WX    TMP DP  RH WIND       PRES   REMARKS
DOWNTOWN L.A.  MOSUNNY   84  36  18 CALM      29.85S
6HR MIN TEMP:  61; 6HR MAX TEMP:  84;

L.A. AIRPORT   MOSUNNY   82  32  16 VRB3      29.86S
6HR MIN TEMP:  60; 6HR MAX TEMP:  82;

SAN DIEGO      MOSUNNY   80  32  17 CALM      29.86F
6HR MIN TEMP:  62; 6HR MAX TEMP:  80;

BURBANK        SUNNY     81  25  12 VRB3      29.87S
6HR MIN TEMP:  57; 6HR MAX TEMP:  81;

ONTARIO        MOSUNNY   81  21  11 VRB5      29.87F
6HR MIN TEMP:  54; 6HR MAX TEMP:  82;

RIVERSIDE      SUNNY     82  25  12 N14G24    29.86F
6HR MIN TEMP:  56; 6HR MAX TEMP:  83;

PALM SPRINGS   SUNNY     86  21   9 N7G20     29.89F
6HR MIN TEMP:  65; 6HR MAX TEMP:  87;

EL CENTRO NAS  MOSUNNY   86  23  10 N17       29.85F
6HR MIN TEMP:  56; 6HR MAX TEMP:  86;

IMPERIAL       MOSUNNY   85  33  15 N14       29.83F
6HR MIN TEMP:  55; 6HR MAX TEMP:  85;

BLYTHE         MOSUNNY   84  29  13 N13       29.85F
6HR MIN TEMP:  61; 6HR MAX TEMP:  84;

NEEDLES        PTSUNNY   79  30  16 N21       29.89F
6HR MIN TEMP:  68; 6HR MAX TEMP:  80;

$$

NVZ020-UTZ003-251900-
SOUTHERN NEVADA-UTAH

CITY           SKY/WX    TMP DP  RH WIND       PRES   REMARKS
LAS VEGAS      MOSUNNY   72  28  19 VRB5      29.99F
6HR MIN TEMP:  57; 6HR MAX TEMP:  72;

SALT LAKE CITY MOSUNNY   54  38  54 CALM      30.13F
6HR MIN TEMP:  42; 6HR MAX TEMP:  55;

$$

NMZ009-TXZ055-251900-
NEW MEXICO-WEST TEXAS

CITY           SKY/WX    TMP DP  RH WIND       PRES   REMARKS
ALBUQUERQUE    SUNNY     66  23  19 NW7       29.99F
6HR MIN TEMP:  52; 6HR MAX TEMP:  67;

EL PASO        MOSUNNY   81  37  20 W6        29.88F
$$


........................KEY........................
SKY/WX - SKY CONDITION/WEATHER
TMP    - TEMPERATURE IN FAHRENHEIT
DP     - DEW POINT IN FAHRENHEIT
RH     - RELATIVE HUMIDITY IN PERCENT
WIND   - DIRECTION AND SPEED IN MILES PER HOUR (MPH)
VRB    - VARIABLE WIND DIRECTION
PRES   - MEAN SEA LEVEL PRESSURE IN INCHES OF MERCURY
         F - FALLING PRESSURE   R - RISING PRESSURE
         S - STEADY PRESSURE
VSB    - VISIBILITY IN MILES
HX     - HEAT INDEX IN FAHRENHEIT
WCI    - WIND CHILL INDEX IN FAHRENHEIT
TC     - TEMPERATURE IN CELSIUS WHICH IS ALSO KNOWN AS
         TEMPERATURE IN CENTIGRADE
AFB    - AIR FORCE BASE
         LUKE AFB IS LUKE AIR FORCE BASE
         DAVIS-MONTHAN IS DAVIS-MONTHAN AIR FORCE BASE
NAS    - NAVAL AIR STATION
         EL CENTRO NAS IS EL CENTRO NAVAL AIR STATION
N/A    - NOT AVAILABLE




USA.gov is the U.S. government's official web portal to all federal, state and local government web resources and services.